Location: Unspecified
(48.2082°N, 0.0000°E)
Time: 11:19:42
(UTC+00:00)

Vanguard 1 - Pass Details

Date: 01 July 2019
Orbit: 653 x 3830 km, 34.2° (Epoch: 17 October)

Event Time Altitude Azimuth Distance (km) Brightness Sun altitude
Rises 04:07:05 0° 267° (W) 7,678 14.1 -0.3°
Reaches altitude 10° 04:13:10 10° 262° (W) 6,324 13.6 0.5°
Maximum altitude 04:29:23 40° 202° (SSW) 3,106 12.3 2.7°
Drops below altitude 10° 04:39:02 10° 137° (SE) 3,815 13.3 4.1°
Sets 04:41:43 0° 129° (SE) 4,466 13.7 4.5°
